• en Suisse
  • Liste des pays
  • À 7 jours
  • Température de l'eau
  • Carte satellitaire
  • Carte météo
  • Widgets météo
  • user-avatar
    Se connecter

    Météo par heure à Serebryanytsya

    Ce jour, 20 Juillet, Vendredi

    Heure Température Précipitation Vent Pression Humidité
    00:00 +19°C° 0 mm 3 m/s 737 mmHg 90%
    01:00 +19°C° 0 mm 3 m/s 737 mmHg 91%
    02:00 +18°C° 0 mm 3 m/s 737 mmHg 93%
    03:00 +18°C° 0 mm 3 m/s 737 mmHg 93%
    04:00 +18°C° 0 mm 3 m/s 737 mmHg 94%
    05:00 +17°C° 0 mm 3 m/s 737 mmHg 95%
    06:00 +19°C° 0 mm 4 m/s 738 mmHg 92%
    07:00 +20°C° 0 mm 4 m/s 738 mmHg 89%
    08:00 +21°C° 0 mm 5 m/s 738 mmHg 86%
    09:00 +22°C° 0,2 mm 5 m/s 738 mmHg 84%
    10:00 +22°C° 0,2 mm 5 m/s 738 mmHg 82%
    11:00 +23°C° 0,2 mm 4 m/s 738 mmHg 80%
    12:00 +25°C° 1 mm 5 m/s 738 mmHg 78%
    13:00 +26°C° 1 mm 5 m/s 738 mmHg 75%
    14:00 +26°C° 1 mm 5 m/s 738 mmHg 73%
    15:00 +26°C° 0,6 mm 5 m/s 738 mmHg 74%
    16:00 +26°C° 0,6 mm 5 m/s 738 mmHg 76%
    17:00 +26°C° 0,6 mm 6 m/s 738 mmHg 77%
    18:00 +25°C° 0,1 mm 5 m/s 738 mmHg 80%
    19:00 +23°C° 0,1 mm 4 m/s 738 mmHg 84%
    20:00 +22°C° 0,1 mm 4 m/s 738 mmHg 88%
    21:00 +21°C° 0 mm 4 m/s 738 mmHg 89%
    22:00 +20°C° 0 mm 4 m/s 738 mmHg 91%
    23:00 +19°C° 0 mm 4 m/s 739 mmHg 93%

    Demain, 21 Juillet, Samedi

    Heure Température Précipitation Vent Pression Humidité
    00:00 +19°C° 0 mm 4 m/s 739 mmHg 94%
    01:00 +19°C° 0 mm 4 m/s 739 mmHg 95%
    02:00 +18°C° 0 mm 4 m/s 739 mmHg 95%
    03:00 +18°C° 0,1 mm 4 m/s 739 mmHg 96%
    04:00 +18°C° 0,1 mm 4 m/s 739 mmHg 97%
    05:00 +18°C° 0,1 mm 4 m/s 739 mmHg 97%
    06:00 +18°C° 0,1 mm 4 m/s 739 mmHg 95%
    07:00 +19°C° 0,1 mm 4 m/s 740 mmHg 92%
    08:00 +20°C° 0,1 mm 4 m/s 740 mmHg 90%
    09:00 +21°C° 0 mm 4 m/s 740 mmHg 85%
    10:00 +22°C° 0 mm 4 m/s 740 mmHg 79%
    11:00 +23°C° 0 mm 4 m/s 740 mmHg 74%
    12:00 +25°C° 0,1 mm 5 m/s 740 mmHg 69%
    13:00 +26°C° 0,1 mm 5 m/s 740 mmHg 65%
    14:00 +27°C° 0,1 mm 5 m/s 740 mmHg 60%
    15:00 +27°C° 0 mm 5 m/s 740 mmHg 61%
    16:00 +27°C° 0 mm 4 m/s 740 mmHg 61%
    17:00 +26°C° 0 mm 4 m/s 740 mmHg 61%
    18:00 +25°C° 0 mm 4 m/s 740 mmHg 67%
    19:00 +24°C° 0 mm 3 m/s 740 mmHg 73%
    20:00 +21°C° 0 mm 2 m/s 740 mmHg 78%
    21:00 +20°C° 0 mm 2 m/s 740 mmHg 79%
    22:00 +19°C° 0 mm 2 m/s 740 mmHg 80%
    23:00 +18°C° 0 mm 2 m/s 740 mmHg 81%

    Après-demain, 22 Juillet, Dimanche

    Heure Température Précipitation Vent Pression Humidité
    00:00 +17°C° 0 mm 2 m/s 740 mmHg 82%
    01:00 +17°C° 0 mm 2 m/s 740 mmHg 83%
    02:00 +16°C° 0 mm 2 m/s 740 mmHg 83%
    03:00 +16°C° 0 mm 2 m/s 740 mmHg 85%
    04:00 +16°C° 0 mm 2 m/s 740 mmHg 86%
    05:00 +16°C° 0 mm 2 m/s 740 mmHg 87%
    06:00 +17°C° 0 mm 2 m/s 740 mmHg 84%
    07:00 +19°C° 0 mm 2 m/s 740 mmHg 80%
    08:00 +21°C° 0 mm 2 m/s 740 mmHg 76%
    09:00 +23°C° 0 mm 2 m/s 740 mmHg 71%
    10:00 +24°C° 0 mm 3 m/s 740 mmHg 66%
    11:00 +26°C° 0 mm 3 m/s 740 mmHg 61%
    12:00 +26°C° 0,1 mm 3 m/s 740 mmHg 59%
    13:00 +27°C° 0,1 mm 3 m/s 739 mmHg 57%
    14:00 +27°C° 0,1 mm 3 m/s 739 mmHg 55%
    15:00 +27°C° 0 mm 3 m/s 739 mmHg 55%
    16:00 +27°C° 0 mm 2 m/s 739 mmHg 55%
    17:00 +27°C° 0 mm 2 m/s 739 mmHg 56%
    18:00 +26°C° 0 mm 2 m/s 739 mmHg 62%
    19:00 +24°C° 0 mm 2 m/s 739 mmHg 68%
    20:00 +23°C° 0 mm 1 m/s 739 mmHg 75%
    21:00 +22°C° 0 mm 1 m/s 739 mmHg 78%
    22:00 +21°C° 0 mm 1 m/s 739 mmHg 82%
    23:00 +20°C° 0 mm 1 m/s 739 mmHg 85%

    23 Juillet, Lundi

    Heure Température Précipitation Vent Pression Humidité
    00:00 +20°C° 0 mm 1 m/s 739 mmHg 87%
    01:00 +18°C° 0 mm 2 m/s 739 mmHg 89%
    02:00 +18°C° 0 mm 2 m/s 739 mmHg 91%
    03:00 +17°C° 0 mm 2 m/s 739 mmHg 91%
    04:00 +17°C° 0 mm 2 m/s 739 mmHg 92%
    05:00 +18°C° 0 mm 1 m/s 739 mmHg 92%
    06:00 +19°C° 0 mm 2 m/s 739 mmHg 87%
    07:00 +20°C° 0 mm 2 m/s 740 mmHg 82%
    08:00 +23°C° 0 mm 2 m/s 740 mmHg 77%
    09:00 +24°C° 0 mm 3 m/s 740 mmHg 72%
    10:00 +25°C° 0 mm 3 m/s 740 mmHg 66%
    11:00 +27°C° 0 mm 3 m/s 740 mmHg 60%
    12:00 +27°C° 0,1 mm 4 m/s 740 mmHg 58%
    13:00 +28°C° 0,1 mm 4 m/s 739 mmHg 57%
    14:00 +28°C° 0,1 mm 4 m/s 739 mmHg 55%
    15:00 +28°C° 0,1 mm 4 m/s 739 mmHg 57%
    16:00 +27°C° 0,1 mm 4 m/s 739 mmHg 59%
    17:00 +27°C° 0,1 mm 4 m/s 739 mmHg 62%
    18:00 +26°C° 0 mm 3 m/s 740 mmHg 67%
    19:00 +24°C° 0 mm 3 m/s 740 mmHg 72%
    20:00 +23°C° 0 mm 2 m/s 740 mmHg 77%
    21:00 +21°C° 0 mm 2 m/s 740 mmHg 79%
    22:00 +20°C° 0 mm 2 m/s 740 mmHg 80%
    23:00 +19°C° 0 mm 2 m/s 741 mmHg 82%

    24 Juillet, Mardi

    Heure Température Précipitation Vent Pression Humidité
    00:00 +19°C° 0 mm 2 m/s 741 mmHg 84%
    01:00 +18°C° 0 mm 2 m/s 741 mmHg 86%
    02:00 +17°C° 0 mm 2 m/s 741 mmHg 88%
    03:00 +17°C° 0 mm 2 m/s 741 mmHg 89%
    04:00 +17°C° 0 mm 2 m/s 741 mmHg 91%
    05:00 +16°C° 0 mm 2 m/s 741 mmHg 92%
    06:00 +18°C° 0 mm 2 m/s 742 mmHg 87%
    07:00 +19°C° 0 mm 2 m/s 742 mmHg 83%
    08:00 +21°C° 0 mm 2 m/s 742 mmHg 78%
    09:00 +23°C° 0 mm 2 m/s 742 mmHg 72%
    10:00 +25°C° 0 mm 3 m/s 742 mmHg 67%
    11:00 +26°C° 0 mm 3 m/s 742 mmHg 61%
    12:00 +26°C° 0 mm 3 m/s 742 mmHg 59%
    13:00 +27°C° 0 mm 3 m/s 742 mmHg 58%
    14:00 +27°C° 0 mm 4 m/s 742 mmHg 56%
    15:00 +27°C° 0 mm 3 m/s 742 mmHg 56%
    16:00 +27°C° 0 mm 3 m/s 742 mmHg 57%
    17:00 +27°C° 0 mm 3 m/s 742 mmHg 58%
    18:00 +25°C° 0 mm 3 m/s 742 mmHg 64%
    19:00 +24°C° 0 mm 2 m/s 742 mmHg 69%
    20:00 +22°C° 0 mm 1 m/s 742 mmHg 75%
    21:00 +21°C° 0 mm 1 m/s 742 mmHg 77%
    22:00 +20°C° 0 mm 1 m/s 742 mmHg 79%
    23:00 +19°C° 0 mm 1 m/s 742 mmHg 82%

    25 Juillet, Mercredi

    Heure Température Précipitation Vent Pression Humidité
    00:00 +19°C° 0 mm 1 m/s 743 mmHg 83%
    01:00 +19°C° 0 mm 1 m/s 743 mmHg 84%
    02:00 +18°C° 0 mm 1 m/s 743 mmHg 85%
    03:00 +18°C° 0 mm 1 m/s 743 mmHg 86%
    04:00 +18°C° 0 mm 1 m/s 743 mmHg 88%
    05:00 +16°C° 0 mm 1 m/s 743 mmHg 89%
    06:00 +19°C° 0 mm 1 m/s 743 mmHg 84%
    07:00 +21°C° 0 mm 1 m/s 743 mmHg 79%
    08:00 +23°C° 0 mm 1 m/s 744 mmHg 74%
    09:00 +24°C° 0,1 mm 1 m/s 744 mmHg 69%
    10:00 +25°C° 0,1 mm 1 m/s 744 mmHg 64%
    11:00 +27°C° 0,1 mm 1 m/s 744 mmHg 59%
    12:00 +27°C° 0,2 mm 2 m/s 744 mmHg 57%
    13:00 +28°C° 0,2 mm 2 m/s 744 mmHg 55%
    14:00 +28°C° 0,2 mm 2 m/s 743 mmHg 52%
    15:00 +28°C° 0,2 mm 2 m/s 743 mmHg 53%
    16:00 +28°C° 0,2 mm 2 m/s 743 mmHg 55%
    17:00 +28°C° 0,2 mm 2 m/s 743 mmHg 56%
    18:00 +27°C° 0,1 mm 2 m/s 743 mmHg 62%
    19:00 +25°C° 0,1 mm 2 m/s 743 mmHg 68%
    20:00 +23°C° 0,1 mm 2 m/s 743 mmHg 74%
    21:00 +21°C° 0 mm 2 m/s 743 mmHg 77%
    22:00 +20°C° 0 mm 2 m/s 744 mmHg 79%
    23:00 +20°C° 0 mm 2 m/s 744 mmHg 81%
    Voir plus